Tracking 21607 objects as of 26-Oct-2020
HD Live streaming from Space Station
objects crossing your sky now

COSMOS 2409

Track COSMOS 2409 now!
10-day predictions
COSMOS 2409 is classified as:


NORAD ID: 28420
Int'l Code: 2004-037B
Perigee: 1,480.4 km
Apogee: 1,502.5 km
Inclination: 82.5 °
Period: 115.6 minutes
Semi major axis: 7862 km
RCS: 1.0044 m2 (large)
Launch date: September 23, 2004
Source: Commonwealth of Independent States (former USSR) (CIS)
Launch site: PLESETSK MISSILE AND SPACE COMPLEX (PKMTR)

Store-dump communications for Russian government and military.
aabbcc
Your satellite tracking list
Your tracking list is empty




NASA's NSSDC Master Catalog

Two Line Element Set (TLE):
1 28420U 04037B   20299.45174275  .00000038  00000-0  19561-3 0  9993
2 28420  82.4874 179.0708 0014103 111.3417 248.9167 12.45277599731335
Source of the keplerian elements: AFSPC